Starlink 32483

operational
NORAD ID: 61856 Int'l Des: 2024-202 Owner: SPXS Country: US Constellation: starlink
LEOCIRCULAR

Über Starlink 32483

Beschreibung wird geladen...

Live-Position

3D-Globus wird geladen...

Nächste Überflüge

Höhenverlauf

Altitude vs Time

uPlot chart will show altitude changes over time

Zweizeiliger Elementsatz

1 61856U 24202M 25304.84298093 .00000555 00000-0 29712-4 0 9993
2 61856 43.0059 245.5324 0001226 249.9705 110.1015 15.27573215 55637
Epoch: 31. Okt. 2025 • Age: 12 hours

Aktueller Status

Höhe 488.8 km
Geschwindigkeit 7.62 km/s
Subsatellitenpunkt -25.78°S, 69.74°W
Startdatum 7. Nov. 2024
Alter 0.9 years
Typ internet

Technische Details

Klassifizierung Payload
Masse 730.00 kg
Trockenmasse 700.00 kg
Gesamtmasse 730.00 kg
Länge 0.30 m
Durchmesser 4.10 m
Spannweite 29.00 m
Form Box + pan
Hersteller SPXS
Bus-Typ Starlink V2M
Phasenstatus In Orbit
Besitzer/Staat SPXS/US

Große Konstellationen

Loading constellations...